Find Starlink 30349

NORAD ID: 57713 Int'l Des: 2023-129 Owner: SPXS Country: US Constellation: starlink operational
LEOCIRCULAR

リアルタイム位置

3D地球を読み込み中...

Starlink 30349について

説明を読み込み中...

次回通過

Passes for default location (London). Set your location on the main map for personalized predictions.

高度履歴

Loading altitude history...

軌道要素

1 57713U 23129R 26127.10166623 .00001786 00000-0 74426-4 0 9992
2 57713 43.0018 148.2127 0000961 277.9842 82.0900 15.27577061149476
Epoch: May 7, 2026 • Age: 15 hours

現在のステータス

高度 486.8 km
速度 7.63 km/s
衛星直下点 42.90°N, 122.31°E
打ち上げ日 Aug 27, 2023
運用期間 2.6 years
タイプ internet

技術仕様

分類 Payload
質量 730.00 kg
乾燥質量 700.00 kg
総質量 730.00 kg
長さ 0.30 m
直径 4.10 m
スパン 29.00 m
形状 Box + pan
製造者 SPXS
バスタイプ Starlink V2M
フェーズステータス In Orbit
所有者/国 SPXS/US

Most Searched